Reid Restricted Landing Area

Jump to: basic info | weather | runways | comments

Related pages: nearby airports | nearby navaids | notams | map

Basic information (top)

Codes: 6IL6
Location: lon 42.118401, lat -88.407898, elev 920 ft / 280 m msl
Status: small_airport

Weather (top)

Current conditions for Dupage Airport 15nm (27km) SSE (rec'd 2015/03/29 23:52Z):

KDPA 292352Z 23015KT 10SM -RA OVC033 08/02 A2977 RMK AO2 PK WND 20027/2300 RAB51 SLP086 P0000 60000 T00830017 10083 20011 55016

Airport forecast for Dupage Airport 15nm (27km) SSE (rec'd 2015/03/29 00:42Z):

TAF KDPA 292339Z 3000/3024 22012G18KT 6SM -RA BKN025 OVC040 
     FM300015 29018G28KT P6SM BKN025 
     FM300200 27009KT P6SM SKC 
     FM301800 27010KT P6SM BKN070

Runways (top)

E/W: 3,000 x 105 ft (914 x 32 m) — grass — not lighted

N/S: 2,100 x 105 ft (640 x 32 m) — grass — not lighted

Latest comments (top)

No comments yet for Reid Restricted Landing Area

More... (top)

See also NOTAMs and nearby airports and navaids, or visit the Reid Restricted Landing Area page at the main OurAirports website..